When you browse on this site, cookies collect data to enhance your experience and personalize the content and advertising you see.
Visit our Privacy Policy to learn more. By continuing to use the site, you agree to this use of cookies and data.
  • En España
  • Lista de países
  • Para 7 días
  • Temperatura del agua
  • Mapa Satelital
  • El tiempo en el mapa
  • Informadores
  • user-avatar
    Iniciar sesión

    Tiempo cada hora Verhnie Domanichi

    Hoy, 19 Julio, Viernes

    Tiempo Temperatura Precipitaciones Viento Presión Humedad
    00:00 +13°C° 0.5 mm 4 mps 734 mmHg 98%
    01:00 +13°C° 0.5 mm 4 mps 734 mmHg 97%
    02:00 +13°C° 0.5 mm 4 mps 734 mmHg 97%
    03:00 +13°C° 0.5 mm 5 mps 734 mmHg 97%
    04:00 +13°C° 0.5 mm 5 mps 735 mmHg 97%
    05:00 +13°C° 0.5 mm 5 mps 735 mmHg 97%
    06:00 +14°C° 0.3 mm 5 mps 735 mmHg 96%
    07:00 +14°C° 0.3 mm 5 mps 736 mmHg 95%
    08:00 +14°C° 0.3 mm 5 mps 736 mmHg 94%
    09:00 +14°C° 0.2 mm 5 mps 736 mmHg 94%
    10:00 +14°C° 0.2 mm 5 mps 737 mmHg 93%
    11:00 +14°C° 0.2 mm 5 mps 737 mmHg 92%
    12:00 +15°C° 0.2 mm 6 mps 737 mmHg 90%
    13:00 +16°C° 0.2 mm 6 mps 737 mmHg 87%
    14:00 +16°C° 0.2 mm 7 mps 738 mmHg 85%
    15:00 +17°C° 0 mm 7 mps 738 mmHg 82%
    16:00 +17°C° 0 mm 7 mps 738 mmHg 79%
    17:00 +17°C° 0 mm 6 mps 739 mmHg 76%
    18:00 +16°C° 0 mm 6 mps 739 mmHg 79%
    19:00 +15°C° 0 mm 5 mps 739 mmHg 81%
    20:00 +14°C° 0 mm 4 mps 739 mmHg 83%
    21:00 +14°C° 0 mm 4 mps 739 mmHg 83%
    22:00 +14°C° 0 mm 4 mps 740 mmHg 83%
    23:00 +14°C° 0 mm 4 mps 740 mmHg 82%

    Mañana, 20 Julio, Sábado

    Tiempo Temperatura Precipitaciones Viento Presión Humedad
    00:00 +14°C° 0 mm 4 mps 740 mmHg 85%
    01:00 +13°C° 0 mm 4 mps 740 mmHg 87%
    02:00 +12°C° 0 mm 4 mps 740 mmHg 90%
    03:00 +12°C° 0 mm 4 mps 741 mmHg 91%
    04:00 +12°C° 0 mm 3 mps 741 mmHg 92%
    05:00 +12°C° 0 mm 3 mps 741 mmHg 93%
    06:00 +13°C° 0 mm 4 mps 741 mmHg 89%
    07:00 +15°C° 0 mm 4 mps 742 mmHg 85%
    08:00 +17°C° 0 mm 4 mps 742 mmHg 81%
    09:00 +18°C° 0.1 mm 4 mps 742 mmHg 79%
    10:00 +19°C° 0.1 mm 5 mps 743 mmHg 77%
    11:00 +20°C° 0.1 mm 5 mps 743 mmHg 76%
    12:00 +21°C° 0.6 mm 5 mps 743 mmHg 76%
    13:00 +21°C° 0.6 mm 5 mps 743 mmHg 76%
    14:00 +21°C° 0.6 mm 5 mps 743 mmHg 76%
    15:00 +21°C° 0.4 mm 5 mps 743 mmHg 77%
    16:00 +21°C° 0.4 mm 4 mps 743 mmHg 78%
    17:00 +21°C° 0.4 mm 4 mps 743 mmHg 79%
    18:00 +20°C° 0.1 mm 3 mps 743 mmHg 82%
    19:00 +18°C° 0.1 mm 3 mps 743 mmHg 84%
    20:00 +17°C° 0.1 mm 3 mps 744 mmHg 87%
    21:00 +16°C° 0 mm 3 mps 744 mmHg 87%
    22:00 +15°C° 0 mm 2 mps 744 mmHg 88%
    23:00 +14°C° 0 mm 2 mps 744 mmHg 88%

    Pasado mañana, 21 Julio, Domingo

    Tiempo Temperatura Precipitaciones Viento Presión Humedad
    00:00 +14°C° 0 mm 2 mps 744 mmHg 89%
    01:00 +13°C° 0 mm 2 mps 744 mmHg 90%
    02:00 +13°C° 0 mm 2 mps 744 mmHg 91%
    03:00 +13°C° 0 mm 2 mps 744 mmHg 91%
    04:00 +13°C° 0 mm 2 mps 745 mmHg 91%
    05:00 +13°C° 0 mm 2 mps 745 mmHg 90%
    06:00 +15°C° 0 mm 2 mps 745 mmHg 85%
    07:00 +17°C° 0 mm 2 mps 745 mmHg 80%
    08:00 +19°C° 0 mm 2 mps 745 mmHg 75%
    09:00 +20°C° 0 mm 2 mps 745 mmHg 71%
    10:00 +21°C° 0 mm 2 mps 745 mmHg 67%
    11:00 +24°C° 0 mm 3 mps 745 mmHg 63%
    12:00 +24°C° 0 mm 3 mps 745 mmHg 62%
    13:00 +25°C° 0 mm 3 mps 745 mmHg 61%
    14:00 +25°C° 0 mm 3 mps 745 mmHg 60%
    15:00 +25°C° 0 mm 3 mps 745 mmHg 62%
    16:00 +25°C° 0 mm 3 mps 745 mmHg 65%
    17:00 +24°C° 0 mm 2 mps 745 mmHg 68%
    18:00 +23°C° 0 mm 2 mps 745 mmHg 74%
    19:00 +21°C° 0 mm 1 mps 744 mmHg 80%
    20:00 +19°C° 0 mm 1 mps 744 mmHg 85%
    21:00 +16°C° 0 mm 0 mps 744 mmHg 86%
    22:00 +16°C° 0 mm 0 mps 745 mmHg 86%
    23:00 +15°C° 0 mm 0 mps 745 mmHg 86%

    22 Julio, Lunes

    Tiempo Temperatura Precipitaciones Viento Presión Humedad
    00:00 +15°C° 0 mm 0 mps 744 mmHg 87%
    01:00 +15°C° 0 mm 1 mps 744 mmHg 88%
    02:00 +15°C° 0 mm 1 mps 744 mmHg 89%
    03:00 +15°C° 0 mm 1 mps 744 mmHg 89%
    04:00 +15°C° 0 mm 1 mps 744 mmHg 89%
    05:00 +16°C° 0 mm 1 mps 744 mmHg 89%
    06:00 +17°C° 0 mm 2 mps 743 mmHg 85%
    07:00 +19°C° 0 mm 2 mps 743 mmHg 82%
    08:00 +20°C° 0 mm 2 mps 743 mmHg 78%
    09:00 +21°C° 0.4 mm 2 mps 743 mmHg 76%
    10:00 +22°C° 0.4 mm 3 mps 743 mmHg 75%
    11:00 +24°C° 0.4 mm 3 mps 742 mmHg 73%
    12:00 +24°C° 1.1 mm 3 mps 742 mmHg 75%
    13:00 +24°C° 1.1 mm 3 mps 742 mmHg 76%
    14:00 +24°C° 1.1 mm 2 mps 742 mmHg 78%
    15:00 +23°C° 0.7 mm 2 mps 742 mmHg 82%
    16:00 +21°C° 0.7 mm 2 mps 741 mmHg 85%
    17:00 +20°C° 0.7 mm 2 mps 741 mmHg 89%
    18:00 +19°C° 0.3 mm 2 mps 741 mmHg 91%
    19:00 +18°C° 0.3 mm 2 mps 741 mmHg 94%
    20:00 +17°C° 0.3 mm 2 mps 741 mmHg 96%
    21:00 +17°C° 0.6 mm 2 mps 741 mmHg 97%
    22:00 +17°C° 0.6 mm 2 mps 741 mmHg 97%
    23:00 +17°C° 0.6 mm 2 mps 741 mmHg 98%

    23 Julio, Martes

    Tiempo Temperatura Precipitaciones Viento Presión Humedad
    00:00 +17°C° 1 mm 2 mps 741 mmHg 98%
    01:00 +17°C° 1 mm 2 mps 740 mmHg 98%
    02:00 +17°C° 1 mm 2 mps 740 mmHg 98%
    03:00 +16°C° 1.8 mm 3 mps 740 mmHg 98%
    04:00 +16°C° 1.8 mm 3 mps 740 mmHg 98%
    05:00 +15°C° 1.8 mm 4 mps 740 mmHg 98%
    06:00 +15°C° 1.2 mm 4 mps 740 mmHg 97%
    07:00 +14°C° 1.2 mm 4 mps 741 mmHg 97%
    08:00 +14°C° 1.2 mm 4 mps 741 mmHg 97%
    09:00 +14°C° 0.5 mm 4 mps 741 mmHg 96%
    10:00 +15°C° 0.5 mm 4 mps 741 mmHg 95%
    11:00 +15°C° 0.5 mm 5 mps 741 mmHg 94%
    12:00 +15°C° 0.1 mm 4 mps 742 mmHg 95%
    13:00 +15°C° 0.1 mm 4 mps 742 mmHg 95%
    14:00 +15°C° 0.1 mm 4 mps 742 mmHg 95%
    15:00 +17°C° 0.1 mm 4 mps 742 mmHg 94%
    16:00 +17°C° 0.1 mm 4 mps 742 mmHg 93%
    17:00 +17°C° 0.1 mm 3 mps 742 mmHg 92%
    18:00 +17°C° 0.3 mm 4 mps 742 mmHg 91%
    19:00 +17°C° 0.3 mm 4 mps 742 mmHg 90%
    20:00 +15°C° 0.3 mm 4 mps 742 mmHg 89%
    21:00 +15°C° 0.2 mm 4 mps 742 mmHg 90%
    22:00 +16°C° 0.2 mm 3 mps 742 mmHg 92%
    23:00 +14°C° 0.2 mm 3 mps 742 mmHg 93%

    24 Julio, Miércoles

    Tiempo Temperatura Precipitaciones Viento Presión Humedad
    00:00 +14°C° 0 mm 3 mps 742 mmHg 93%
    01:00 +13°C° 0 mm 4 mps 742 mmHg 93%
    02:00 +13°C° 0 mm 4 mps 742 mmHg 93%
    03:00 +13°C° 0 mm 4 mps 742 mmHg 92%
    04:00 +13°C° 0 mm 4 mps 742 mmHg 92%
    05:00 +12°C° 0 mm 4 mps 742 mmHg 92%
    06:00 +14°C° 0 mm 4 mps 742 mmHg 87%
    07:00 +15°C° 0 mm 5 mps 742 mmHg 83%
    08:00 +16°C° 0 mm 5 mps 743 mmHg 78%
    09:00 +17°C° 0 mm 5 mps 743 mmHg 72%
    10:00 +19°C° 0 mm 5 mps 743 mmHg 66%
    11:00 +21°C° 0 mm 6 mps 743 mmHg 60%
    12:00 +21°C° 0 mm 6 mps 743 mmHg 60%
    13:00 +21°C° 0 mm 6 mps 743 mmHg 59%
    14:00 +22°C° 0 mm 5 mps 743 mmHg 59%
    15:00 +22°C° 0 mm 5 mps 743 mmHg 62%
    16:00 +22°C° 0 mm 4 mps 743 mmHg 66%
    17:00 +22°C° 0 mm 3 mps 743 mmHg 70%
    18:00 +20°C° 0 mm 3 mps 742 mmHg 73%
    19:00 +19°C° 0 mm 3 mps 742 mmHg 75%
    20:00 +17°C° 0 mm 4 mps 742 mmHg 77%
    21:00 +15°C° 0 mm 4 mps 742 mmHg 79%
    22:00 +15°C° 0 mm 4 mps 742 mmHg 80%
    23:00 +14°C° 0 mm 4 mps 742 mmHg 81%
    Mostrar más